This is the latest recevied weather packets stored in our database for station/object S56VIL-11. If no packets are shown the sender has not sent any weather packets the latest 10 day(s).
| Time | Temp. | Humidity | Pressure | Rain* | Wind** | Luminosity | Snow |
|---|---|---|---|---|---|---|---|
| 1777546484 | 12.22° C | 64% | 1035.4 hPa | - | - | - | - |
| 1777545581 | 15.56° C | 65% | 1035.3 hPa | - | - | - | - |
| 1777544684 | 15° C | 66% | 1035.4 hPa | - | - | - | - |
| 1777543781 | 15.56° C | 66% | 1035.3 hPa | - | - | - | - |
| 1777542883 | 15° C | 66% | 1035.2 hPa | - | - | - | - |
| 1777541981 | 15° C | 67% | 1035.3 hPa | - | - | - | - |
| 1777541083 | 14.44° C | 66% | 1035.3 hPa | - | - | - | - |
| 1777540181 | 12.78° C | 67% | 1035.3 hPa | - | - | - | - |
| 1777539283 | 12.78° C | 67% | 1035.3 hPa | - | - | - | - |
| 1777538382 | 11.11° C | 68% | 1035.2 hPa | - | - | - | - |
| 1777537482 | 8.89° C | 69% | 1035.2 hPa | - | - | - | - |
| 1777536581 | 7.22° C | 70% | 1035.2 hPa | - | - | - | - |
| 1777535679 | 6.11° C | 69% | 1035.1 hPa | - | - | - | - |
| 1777534781 | 5.56° C | 70% | 1035.1 hPa | - | - | - | - |
| 1777533881 | 5° C | 70% | 1035.1 hPa | - | - | - | - |
| 1777532981 | 4.44° C | 70% | 1035 hPa | - | - | - | - |
| 1777532081 | 3.89° C | 71% | 1035 hPa | - | - | - | - |
| 1777531181 | 3.33° C | 71% | 1035 hPa | - | - | - | - |
| 1777530281 | 2.78° C | 72% | 1034.9 hPa | - | - | - | - |
| 1777529381 | 3.33° C | 72% | 1034.7 hPa | - | - | - | - |
| 1777528480 | 3.33° C | 73% | 1034.6 hPa | - | - | - | - |
| 1777527581 | 3.33° C | 74% | 1034.4 hPa | - | - | - | - |
| 1777526680 | 3.89° C | 75% | 1034.4 hPa | - | - | - | - |
| 1777525778 | 1.67° C | 74% | 1034.2 hPa | - | - | - | - |
| 1777524880 | 1.67° C | 74% | 1033.8 hPa | - | - | - | - |
* Rain since midnight (hover to see other rain measurements)
** Current wind speed in m/s (hover to see current wind gust speed)